Time,TemperatureF,DewpointF,PressureIn,WindDirection,WindDirectionDegrees,WindSpeedMPH,WindSpeedGustMPH,Humidity,HourlyPrecipIn,Conditions,Clouds,dailyrainin,SoftwareType,DateUTC
2013-03-10 00:00:00,41.4,40.0,28.56,NNW,336,3.1,3.1,95,0.00,,,0.00,VWS V14.00,2013-03-10 06:00:00,
2013-03-10 00:05:00,41.4,40.0,28.56,North,7,0.0,5.4,95,0.00,,,0.00,VWS V14.00,2013-03-10 06:05:00,
2013-03-10 00:10:00,41.4,40.0,28.53,North,7,0.0,2.2,95,0.00,,,0.00,VWS V14.00,2013-03-10 06:10:00,
2013-03-10 00:15:00,41.4,39.8,28.53,North,7,0.0,2.2,94,0.00,,,0.00,VWS V14.00,2013-03-10 06:15:00,
2013-03-10 00:20:00,41.5,40.2,28.53,North,7,0.0,0.0,95,0.00,,,0.00,VWS V14.00,2013-03-10 06:20:00,
2013-03-10 00:25:00,41.5,40.0,28.53,NW,314,4.0,5.4,94,0.00,,,0.00,VWS V14.00,2013-03-10 06:25:00,
2013-03-10 00:30:00,41.5,40.0,28.53,North,349,3.6,3.6,94,0.00,,,0.00,VWS V14.00,2013-03-10 06:30:00,
2013-03-10 00:35:00,41.5,40.0,28.53,North,0,0.0,3.6,94,0.00,,,0.00,VWS V14.00,2013-03-10 06:35:00,
2013-03-10 00:40:00,41.5,40.0,28.53,North,0,0.0,0.0,94,0.00,,,0.00,VWS V14.00,2013-03-10 06:40:00,
2013-03-10 00:45:00,41.7,40.1,28.53,North,0,0.0,0.0,94,0.00,,,0.00,VWS V14.00,2013-03-10 06:45:00,
2013-03-10 00:50:00,41.7,40.1,28.53,North,0,0.0,0.0,94,0.00,,,0.00,VWS V14.00,2013-03-10 06:50:00,
2013-03-10 00:55:00,41.7,40.1,28.56,North,0,0.0,0.0,94,0.00,,,0.00,VWS V14.00,2013-03-10 06:55:00,
2013-03-10 00:59:00,41.9,40.3,28.56,WSW,239,3.1,5.8,94,0.04,,-RA,0.04,VWS V14.00,2013-03-10 06:59:00,
2013-03-10 01:00:00,41.7,40.1,28.56,North,0,0.0,0.0,94,0.00,,-RA,0.00,VWS V14.00,2013-03-10 07:00:00,
2013-03-10 01:05:00,41.7,40.1,28.56,NW,313,4.0,4.9,94,0.00,,-RA,0.00,VWS V14.00,2013-03-10 07:05:00,
2013-03-10 01:10:00,41.9,40.6,28.56,NW,316,0.0,0.0,95,0.00,,-RA,0.00,VWS V14.00,2013-03-10 07:10:00,
2013-03-10 01:15:00,42.1,40.8,28.56,NW,316,0.0,0.0,95,0.00,,-RA,0.00,VWS V14.00,2013-03-10 07:15:00,
2013-03-10 01:20:00,42.1,40.5,28.56,NW,316,0.0,0.0,94,0.04,,-RA,0.04,VWS V14.00,2013-03-10 07:20:00,
2013-03-10 01:25:00,42.1,40.5,28.56,NW,316,0.0,0.0,94,0.04,,-RA,0.04,VWS V14.00,2013-03-10 07:25:00,
2013-03-10 01:30:00,42.1,40.8,28.56,NW,317,0.0,0.0,95,0.04,,-RA,0.04,VWS V14.00,2013-03-10 07:30:00,
2013-03-10 01:35:00,42.1,40.5,28.56,NW,316,0.0,0.0,94,0.04,,-RA,0.04,VWS V14.00,2013-03-10 07:35:00,
2013-03-10 01:40:00,41.7,40.1,28.56,WNW,284,3.6,6.3,94,0.04,,,0.04,VWS V14.00,2013-03-10 07:40:00,
2013-03-10 01:45:00,41.7,40.1,28.56,West,281,3.6,6.3,94,0.04,,,0.04,VWS V14.00,2013-03-10 07:45:00,
2013-03-10 01:50:00,41.7,40.1,28.56,West,271,2.7,4.9,94,0.04,,,0.04,VWS V14.00,2013-03-10 07:50:00,
2013-03-10 01:55:00,41.9,40.3,28.56,WSW,237,3.1,5.8,94,0.04,,,0.04,VWS V14.00,2013-03-10 07:55:00,
2013-03-10 03:00:00,41.7,40.1,28.56,WSW,240,0.0,3.1,94,0.04,,-RA,0.04,VWS V14.00,2013-03-10 08:00:00,
2013-03-10 03:05:00,41.5,40.0,28.56,WSW,241,3.1,6.3,94,0.04,,-RA,0.04,VWS V14.00,2013-03-10 08:05:00,
2013-03-10 03:10:00,41.4,39.8,28.53,SW,227,3.1,3.1,94,0.04,,-RA,0.04,VWS V14.00,2013-03-10 08:10:00,
2013-03-10 03:15:00,41.4,39.8,28.53,NNW,327,4.0,6.3,94,0.04,,-RA,0.04,VWS V14.00,2013-03-10 08:15:00,
2013-03-10 03:20:00,41.4,39.8,28.53,WSW,249,5.8,5.8,94,0.00,,-RA,0.04,VWS V14.00,2013-03-10 08:20:00,
2013-03-10 03:25:00,41.2,39.6,28.50,West,276,3.6,7.6,94,0.00,,-RA,0.04,VWS V14.00,2013-03-10 08:25:00,
2013-03-10 03:30:00,41.2,39.6,28.50,NW,306,4.9,4.9,94,0.00,,-RA,0.04,VWS V14.00,2013-03-10 08:30:00,
2013-03-10 03:35:00,41.2,39.6,28.50,NW,305,4.9,6.3,94,0.00,,-RA,0.04,VWS V14.00,2013-03-10 08:35:00,
2013-03-10 03:40:00,41.2,39.6,28.50,West,277,5.4,6.3,94,0.00,,-RA,0.04,VWS V14.00,2013-03-10 08:40:00,
2013-03-10 03:45:00,41.2,39.6,28.50,WNW,294,0.0,6.3,94,0.00,,-RA,0.04,VWS V14.00,2013-03-10 08:45:00,
2013-03-10 03:50:00,41.4,39.8,28.50,WNW,293,4.9,5.4,94,0.00,,-RA,0.04,VWS V14.00,2013-03-10 08:50:00,
2013-03-10 03:55:00,41.4,39.8,28.53,West,273,2.2,5.8,94,0.00,,-RA,0.04,VWS V14.00,2013-03-10 08:55:00,
2013-03-10 04:00:00,41.2,39.6,28.53,West,274,0.0,0.0,94,0.00,,-RA,0.04,VWS V14.00,2013-03-10 09:00:00,
2013-03-10 04:05:00,41.2,39.6,28.53,West,274,2.7,6.7,94,0.00,,-RA,0.04,VWS V14.00,2013-03-10 09:05:00,
2013-03-10 04:10:00,41.0,39.4,28.53,WSW,243,4.0,4.0,94,0.00,,-RA,0.04,VWS V14.00,2013-03-10 09:10:00,
2013-03-10 04:15:00,40.8,39.5,28.53,West,276,3.6,7.6,95,0.00,,-RA,0.04,VWS V14.00,2013-03-10 09:15:00,
2013-03-10 04:20:00,40.6,39.3,28.53,NW,312,2.7,5.4,95,0.00,,-RA,0.04,VWS V14.00,2013-03-10 09:20:00,
2013-03-10 04:25:00,40.6,39.3,28.53,NW,321,6.3,8.7,95,0.00,,-RA,0.04,VWS V14.00,2013-03-10 09:25:00,
2013-03-10 04:30:00,40.5,39.1,28.53,WNW,294,4.0,4.0,95,0.00,,-RA,0.04,VWS V14.00,2013-03-10 09:30:00,
2013-03-10 04:35:00,40.3,38.7,28.53,WNW,293,3.1,7.6,94,0.00,,-RA,0.04,VWS V14.00,2013-03-10 09:35:00,
2013-03-10 04:40:00,40.3,38.7,28.50,West,277,4.0,5.8,94,0.00,,-RA,0.04,VWS V14.00,2013-03-10 09:40:00,
2013-03-10 04:45:00,40.1,38.5,28.50,West,263,3.1,5.8,94,0.00,,-RA,0.04,VWS V14.00,2013-03-10 09:45:00,
2013-03-10 04:50:00,40.1,38.5,28.50,WNW,294,2.7,4.9,94,0.00,,-RA,0.04,VWS V14.00,2013-03-10 09:50:00,
2013-03-10 04:55:00,39.9,38.3,28.56,West,273,4.0,7.6,94,0.00,,-RA,0.04,VWS V14.00,2013-03-10 09:55:00,
2013-03-10 05:00:00,39.7,38.2,28.56,South,176,2.7,7.6,94,0.00,,-RA,0.04,VWS V14.00,2013-03-10 10:00:00,
2013-03-10 05:05:00,39.4,37.8,28.56,SW,227,0.0,6.7,94,0.00,,-RA,0.04,VWS V14.00,2013-03-10 10:05:00,
2013-03-10 05:10:00,39.2,37.6,28.56,NW,307,3.6,3.6,94,0.00,,-RA,0.04,VWS V14.00,2013-03-10 10:10:00,
2013-03-10 05:15:00,38.8,37.3,28.56,SW,219,5.8,8.7,94,0.00,,-RA,0.04,VWS V14.00,2013-03-10 10:15:00,
2013-03-10 05:20:00,38.7,37.1,28.56,SW,216,5.8,5.8,94,0.00,,-RA,0.04,VWS V14.00,2013-03-10 10:20:00,
2013-03-10 05:25:00,38.5,36.9,28.56,WNW,289,5.4,9.6,94,0.00,,-RA,0.04,VWS V14.00,2013-03-10 10:25:00,
2013-03-10 05:30:00,38.5,36.9,28.56,WSW,240,4.0,5.4,94,0.00,,-RA,0.04,VWS V14.00,2013-03-10 10:30:00,
2013-03-10 05:35:00,38.3,36.7,28.56,WNW,285,3.6,7.2,94,0.00,,-RA,0.04,VWS V14.00,2013-03-10 10:35:00,
2013-03-10 05:40:00,38.1,36.5,28.53,WSW,245,3.1,4.9,94,0.00,,-RA,0.04,VWS V14.00,2013-03-10 10:40:00,
2013-03-10 05:45:00,38.1,36.5,28.53,West,280,4.9,10.5,94,0.00,,-RA,0.04,VWS V14.00,2013-03-10 10:45:00,
2013-03-10 05:50:00,38.1,36.5,28.53,NW,311,5.4,7.6,94,0.00,,-RA,0.04,VWS V14.00,2013-03-10 10:50:00,
2013-03-10 05:55:00,37.9,36.4,28.53,West,268,4.9,11.4,94,0.00,,-RA,0.04,VWS V14.00,2013-03-10 10:55:00,
2013-03-10 06:00:00,37.9,36.4,28.53,NW,314,6.3,10.1,94,0.00,,-RA,0.04,VWS V14.00,2013-03-10 11:00:00,
2013-03-10 06:05:00,37.9,36.4,28.53,WNW,296,7.6,11.0,94,0.00,,-RA,0.04,VWS V14.00,2013-03-10 11:05:00,
2013-03-10 06:10:00,37.9,36.4,28.56,West,268,8.1,8.1,94,0.00,,-RA,0.04,VWS V14.00,2013-03-10 11:10:00,
2013-03-10 06:15:00,37.9,36.4,28.56,West,268,5.8,12.8,94,0.00,,-RA,0.04,VWS V14.00,2013-03-10 11:15:00,
2013-03-10 06:20:00,37.9,36.4,28.56,NW,309,3.1,4.0,94,0.00,,-RA,0.04,VWS V14.00,2013-03-10 11:20:00,
2013-03-10 06:25:00,37.9,36.4,28.59,WNW,299,3.6,10.5,94,0.00,,-RA,0.04,VWS V14.00,2013-03-10 11:25:00,
2013-03-10 06:30:00,37.9,36.4,28.59,WNW,296,4.0,5.8,94,0.00,,-RA,0.04,VWS V14.00,2013-03-10 11:30:00,
2013-03-10 06:35:00,37.9,36.4,28.59,WNW,287,5.4,10.1,94,0.00,,-RA,0.04,VWS V14.00,2013-03-10 11:35:00,
2013-03-10 06:40:00,37.9,36.4,28.59,WNW,285,10.1,10.1,94,0.00,,-RA,0.04,VWS V14.00,2013-03-10 11:40:00,
2013-03-10 06:45:00,37.8,36.2,28.59,West,277,8.1,13.6,94,0.00,,-RA,0.04,VWS V14.00,2013-03-10 11:45:00,
2013-03-10 06:50:00,37.8,36.2,28.59,NW,311,5.4,8.1,94,0.00,,-RA,0.04,VWS V14.00,2013-03-10 11:50:00,
2013-03-10 06:55:00,37.6,36.0,28.59,West,267,4.0,12.3,94,0.00,,-RA,0.04,VWS V14.00,2013-03-10 11:55:00,
2013-03-10 07:00:00,37.6,36.0,28.59,West,263,4.0,5.8,94,0.00,,-RA,0.04,VWS V14.00,2013-03-10 12:00:00,
2013-03-10 07:05:00,37.6,36.0,28.59,West,269,10.1,10.1,94,0.00,,-RA,0.04,VWS V14.00,2013-03-10 12:05:00,
2013-03-10 07:10:00,37.6,36.0,28.56,WNW,289,5.8,10.1,94,0.00,,-RA,0.04,VWS V14.00,2013-03-10 12:10:00,
2013-03-10 07:15:00,37.6,36.0,28.56,West,267,5.8,9.6,94,0.00,,-RA,0.04,VWS V14.00,2013-03-10 12:15:00,
2013-03-10 07:20:00,37.6,36.0,28.56,South,182,5.4,5.4,94,0.00,,-RA,0.04,VWS V14.00,2013-03-10 12:20:00,
2013-03-10 07:25:00,37.6,36.0,28.59,NW,316,3.6,8.1,94,0.00,,-RA,0.04,VWS V14.00,2013-03-10 12:25:00,
2013-03-10 07:30:00,37.6,36.0,28.59,WNW,297,3.1,4.5,94,0.00,,-RA,0.04,VWS V14.00,2013-03-10 12:30:00,
2013-03-10 07:35:00,37.6,36.0,28.59,West,272,4.9,5.4,94,0.00,,-RA,0.04,VWS V14.00,2013-03-10 12:35:00,
2013-03-10 07:40:00,37.6,36.0,28.59,NW,313,3.1,3.1,94,0.00,,-RA,0.04,VWS V14.00,2013-03-10 12:40:00,
2013-03-10 07:45:00,37.4,35.8,28.61,WSW,238,8.7,8.7,94,0.00,,-RA,0.04,VWS V14.00,2013-03-10 12:45:00,
2013-03-10 07:50:00,37.4,35.8,28.61,WSW,256,8.3,8.3,94,0.00,,-RA,0.04,VWS V14.00,2013-03-10 12:50:00,
2013-03-10 07:55:00,37.4,35.8,28.59,West,264,5.8,8.7,94,0.00,,-RA,0.04,VWS V14.00,2013-03-10 12:55:00,
2013-03-10 08:00:00,37.4,35.8,28.59,West,260,5.8,8.7,94,0.00,,-RA,0.04,VWS V14.00,2013-03-10 13:00:00,
2013-03-10 08:05:00,37.4,35.8,28.59,NW,316,5.8,8.1,94,0.00,,-RA,0.04,VWS V14.00,2013-03-10 13:05:00,
2013-03-10 08:10:00,37.2,35.7,28.56,North,4,6.3,6.3,94,0.00,,-RA,0.04,VWS V14.00,2013-03-10 13:10:00,
2013-03-10 08:15:00,37.2,35.7,28.56,WSW,239,7.6,8.7,94,0.00,,-RA,0.04,VWS V14.00,2013-03-10 13:15:00,
2013-03-10 08:20:00,37.2,35.7,28.56,West,265,10.1,10.1,94,0.00,,-RA,0.04,VWS V14.00,2013-03-10 13:20:00,
2013-03-10 08:25:00,37.2,35.7,28.56,WSW,248,2.2,11.0,94,0.00,,-RA,0.04,VWS V14.00,2013-03-10 13:25:00,
2013-03-10 08:30:00,37.2,35.7,28.59,West,274,4.9,4.9,94,0.00,,-RA,0.04,VWS V14.00,2013-03-10 13:30:00,
2013-03-10 08:35:00,37.2,35.7,28.59,WNW,299,8.1,8.1,94,0.00,,-RA,0.04,VWS V14.00,2013-03-10 13:35:00,
2013-03-10 08:40:00,37.2,35.7,28.59,West,273,8.3,9.6,94,0.00,,-RA,0.04,VWS V14.00,2013-03-10 13:40:00,
2013-03-10 08:45:00,37.2,35.7,28.59,WNW,288,3.6,11.0,94,0.00,,-RA,0.04,VWS V14.00,2013-03-10 13:45:00,
2013-03-10 08:50:00,37.2,35.7,28.59,WSW,249,5.8,5.8,94,0.00,,-RA,0.04,VWS V14.00,2013-03-10 13:50:00,
2013-03-10 08:55:00,37.2,35.7,28.61,WNW,298,3.6,8.7,94,0.00,,-RA,0.04,VWS V14.00,2013-03-10 13:55:00,
2013-03-10 09:00:00,37.0,35.5,28.61,WSW,252,7.6,7.6,94,0.00,,-RA,0.04,VWS V14.00,2013-03-10 14:00:00,
2013-03-10 09:05:00,37.0,35.5,28.61,WNW,283,7.2,13.2,94,0.00,,-RA,0.04,VWS V14.00,2013-03-10 14:05:00,
2013-03-10 09:10:00,37.0,35.5,28.61,WSW,257,4.9,4.9,94,0.00,,,0.04,VWS V14.00,2013-03-10 14:10:00,
2013-03-10 09:15:00,37.0,35.5,28.61,West,278,3.6,7.6,94,0.00,,,0.04,VWS V14.00,2013-03-10 14:15:00,
2013-03-10 09:20:00,37.0,35.5,28.61,NW,306,5.8,6.3,94,0.00,,,0.04,VWS V14.00,2013-03-10 14:20:00,
2013-03-10 09:25:00,37.0,35.5,28.61,West,260,9.6,9.6,94,0.00,,,0.04,VWS V14.00,2013-03-10 14:25:00,
2013-03-10 09:30:00,37.0,35.5,28.61,NW,311,8.1,8.1,94,0.00,,,0.04,VWS V14.00,2013-03-10 14:30:00,
2013-03-10 09:35:00,37.0,35.5,28.61,NW,304,6.3,10.5,94,0.00,,,0.04,VWS V14.00,2013-03-10 14:35:00,
2013-03-10 09:40:00,37.0,35.5,28.61,West,278,6.3,11.0,94,0.00,,,0.04,VWS V14.00,2013-03-10 14:40:00,
2013-03-10 09:45:00,37.0,35.5,28.61,WSW,245,6.3,13.2,94,0.00,,,0.04,VWS V14.00,2013-03-10 14:45:00,
2013-03-10 09:50:00,37.0,35.5,28.61,WNW,282,4.9,4.9,94,0.00,,,0.04,VWS V14.00,2013-03-10 14:50:00,
2013-03-10 09:55:00,37.0,35.5,28.61,WNW,300,7.6,11.0,94,0.00,,,0.04,VWS V14.00,2013-03-10 14:55:00,
2013-03-10 10:00:00,37.0,35.5,28.59,WNW,287,4.0,11.0,94,0.00,,,0.04,VWS V14.00,2013-03-10 15:00:00,
2013-03-10 10:05:00,36.9,35.3,28.59,North,0,6.7,9.6,94,0.00,,,0.04,VWS V14.00,2013-03-10 15:05:00,
2013-03-10 10:10:00,37.0,35.5,28.59,WNW,295,4.0,4.0,94,0.00,,,0.04,VWS V14.00,2013-03-10 15:10:00,
2013-03-10 10:15:00,36.9,35.3,28.59,WNW,291,8.1,9.2,94,0.00,,,0.04,VWS V14.00,2013-03-10 15:15:00,
2013-03-10 10:20:00,36.9,35.3,28.59,NW,319,4.0,4.0,94,0.00,,,0.04,VWS V14.00,2013-03-10 15:20:00,
2013-03-10 10:25:00,36.9,35.3,28.59,NW,312,7.2,10.1,94,0.00,,,0.04,VWS V14.00,2013-03-10 15:25:00,
2013-03-10 10:30:00,36.9,35.3,28.59,WSW,244,5.8,11.0,94,0.00,,,0.04,VWS V14.00,2013-03-10 15:30:00,
2013-03-10 10:35:00,36.9,35.3,28.59,NE,51,3.1,8.1,94,0.00,,OVC005,0.04,VWS V14.00,2013-03-10 15:35:00,
2013-03-10 10:40:00,37.0,35.5,28.59,WNW,303,5.4,8.1,94,0.04,,OVC005,0.08,VWS V14.00,2013-03-10 15:40:00,
2013-03-10 10:45:00,36.7,35.1,28.64,WNW,286,11.0,11.9,94,0.04,,OVC005,0.08,VWS V14.00,2013-03-10 15:45:00,
2013-03-10 10:50:00,36.5,34.9,28.64,North,353,8.1,8.1,94,0.04,,OVC005,0.08,VWS V14.00,2013-03-10 15:50:00,
2013-03-10 10:55:00,36.7,35.1,28.61,North,349,8.1,12.8,94,0.08,,RA,0.12,VWS V14.00,2013-03-10 15:55:00,
2013-03-10 11:00:00,36.7,35.1,28.61,WNW,293,6.3,12.8,94,0.08,,RA,0.00,VWS V14.00,2013-03-10 16:00:00,
2013-03-10 11:05:00,36.7,35.1,28.61,North,3,3.6,8.7,94,0.12,,-RA,0.16,VWS V14.00,2013-03-10 16:05:00,
2013-03-10 11:10:00,36.7,35.1,28.61,NW,324,8.1,8.7,94,0.12,,-RA,0.16,VWS V14.00,2013-03-10 16:10:00,
2013-03-10 11:15:00,36.7,35.1,28.61,NW,321,3.1,8.1,94,0.12,,-RA,0.16,VWS V14.00,2013-03-10 16:15:00,
2013-03-10 11:20:00,36.7,35.1,28.61,WNW,291,4.0,8.7,94,0.12,,-RA,0.16,VWS V14.00,2013-03-10 16:20:00,
2013-03-10 11:25:00,36.7,35.1,28.61,NW,320,8.1,8.1,94,0.12,,-RA,0.16,VWS V14.00,2013-03-10 16:25:00,
2013-03-10 11:30:00,36.7,34.8,28.61,WNW,295,5.8,12.8,93,0.12,,-RA,0.16,VWS V14.00,2013-03-10 16:30:00,
2013-03-10 11:35:00,36.7,34.8,28.61,NW,323,5.8,10.5,93,0.12,,-RA,0.16,VWS V14.00,2013-03-10 16:35:00,
2013-03-10 11:40:00,36.7,34.8,28.61,North,2,5.8,12.8,93,0.12,,-RA,0.16,VWS V14.00,2013-03-10 16:40:00,
2013-03-10 11:45:00,36.5,34.7,28.59,NW,316,5.8,8.1,93,0.08,,OVC012,0.16,VWS V14.00,2013-03-10 16:45:00,
2013-03-10 11:50:00,36.3,34.5,28.59,WNW,291,8.1,8.3,93,0.08,,OVC012,0.16,VWS V14.00,2013-03-10 16:50:00,
2013-03-10 11:55:00,36.3,34.5,28.59,NW,315,4.0,11.0,93,0.08,,OVC012,0.16,VWS V14.00,2013-03-10 16:55:00,
2013-03-10 12:00:00,36.3,34.5,28.59,NW,315,6.3,11.0,93,0.08,,OVC008,0.00,VWS V14.00,2013-03-10 17:00:00,
2013-03-10 12:05:00,36.3,34.5,28.59,WNW,299,5.8,8.7,93,0.04,,OVC008,0.16,VWS V14.00,2013-03-10 17:05:00,
2013-03-10 12:10:00,36.3,34.5,28.59,NW,323,5.8,8.7,93,0.04,,OVC008,0.16,VWS V14.00,2013-03-10 17:10:00,
2013-03-10 12:15:00,36.1,34.3,28.59,WSW,256,3.1,12.3,93,0.00,,OVC008,0.16,VWS V14.00,2013-03-10 17:15:00,
2013-03-10 12:20:00,36.1,34.3,28.59,WNW,284,5.8,12.3,93,0.00,,OVC008,0.16,VWS V14.00,2013-03-10 17:20:00,
2013-03-10 12:25:00,36.1,34.3,28.59,NW,315,8.3,12.8,93,0.00,,OVC008,0.16,VWS V14.00,2013-03-10 17:25:00,
2013-03-10 12:30:00,36.1,34.3,28.59,NW,317,4.9,12.8,93,0.00,,OVC008,0.16,VWS V14.00,2013-03-10 17:30:00,
2013-03-10 12:35:00,36.1,34.3,28.59,WSW,254,5.8,8.1,93,0.00,,OVC008,0.16,VWS V14.00,2013-03-10 17:35:00,
2013-03-10 12:40:00,36.0,34.1,28.59,WNW,303,7.6,10.1,93,0.00,,OVC008,0.16,VWS V14.00,2013-03-10 17:40:00,
2013-03-10 12:45:00,36.0,34.1,28.59,NW,315,6.3,8.7,93,0.00,,OVC008,0.16,VWS V14.00,2013-03-10 17:45:00,
2013-03-10 12:50:00,36.0,34.1,28.59,NW,311,3.6,10.1,93,0.00,,OVC008,0.16,VWS V14.00,2013-03-10 17:50:00,
2013-03-10 12:55:00,35.8,33.7,28.59,NW,311,8.7,8.7,92,0.00,,OVC008,0.16,VWS V14.00,2013-03-10 17:55:00,
2013-03-10 13:00:00,35.8,33.7,28.59,NW,310,5.4,11.9,92,0.00,,-RA,0.00,VWS V14.00,2013-03-10 18:00:00,
2013-03-10 13:05:00,35.8,33.7,28.59,West,276,5.8,10.5,92,0.00,,-RA,0.16,VWS V14.00,2013-03-10 18:05:00,
2013-03-10 13:10:00,35.8,33.7,28.59,WNW,299,7.6,10.5,92,0.00,,-RA,0.16,VWS V14.00,2013-03-10 18:10:00,
2013-03-10 13:15:00,35.8,33.7,28.59,WNW,301,5.8,8.1,92,0.00,,-RA,0.16,VWS V14.00,2013-03-10 18:15:00,
2013-03-10 13:20:00,35.8,33.7,28.59,WNW,297,4.0,10.5,92,0.00,,-RA,0.16,VWS V14.00,2013-03-10 18:20:00,
2013-03-10 13:25:00,35.8,33.7,28.59,WNW,284,5.4,10.1,92,0.00,,-RA,0.16,VWS V14.00,2013-03-10 18:25:00,
2013-03-10 13:30:00,35.8,33.7,28.59,WNW,288,6.3,10.1,92,0.00,,-RA,0.16,VWS V14.00,2013-03-10 18:30:00,
2013-03-10 13:35:00,35.8,33.7,28.59,WNW,298,3.1,11.0,92,0.00,,-RA,0.16,VWS V14.00,2013-03-10 18:35:00,
2013-03-10 13:40:00,35.8,33.7,28.59,NW,317,5.4,11.0,92,0.00,,-RA,0.16,VWS V14.00,2013-03-10 18:40:00,
2013-03-10 13:45:00,35.8,33.7,28.59,SW,228,3.1,6.3,92,0.00,,-RA,0.16,VWS V14.00,2013-03-10 18:45:00,
2013-03-10 13:50:00,35.8,33.7,28.59,WNW,290,4.9,8.1,92,0.00,,-RA,0.16,VWS V14.00,2013-03-10 18:50:00,
2013-03-10 13:55:00,35.8,33.7,28.59,NW,305,4.0,7.6,92,0.04,,-RA,0.20,VWS V14.00,2013-03-10 18:55:00,
2013-03-10 14:00:00,35.6,33.5,28.56,WNW,292,3.6,8.7,92,0.04,,-RA,0.00,VWS V14.00,2013-03-10 19:00:00,
2013-03-10 14:05:00,35.8,33.7,28.56,West,263,4.9,6.3,92,0.04,,-RA,0.20,VWS V14.00,2013-03-10 19:05:00,
2013-03-10 14:10:00,35.6,33.5,28.56,SW,229,2.7,8.3,92,0.04,,-RA,0.20,VWS V14.00,2013-03-10 19:10:00,
2013-03-10 14:15:00,35.6,33.5,28.56,WNW,292,5.4,8.1,92,0.04,,-RA,0.20,VWS V14.00,2013-03-10 19:15:00,
2013-03-10 14:20:00,35.6,33.5,28.56,WNW,296,4.0,8.3,92,0.04,,-RA,0.20,VWS V14.00,2013-03-10 19:20:00,
2013-03-10 14:25:00,35.6,33.5,28.56,NW,308,3.6,7.2,92,0.04,,-RA,0.20,VWS V14.00,2013-03-10 19:25:00,
2013-03-10 14:30:00,35.8,33.7,28.56,NW,306,4.9,8.7,92,0.04,,-RA,0.20,VWS V14.00,2013-03-10 19:30:00,
2013-03-10 14:35:00,35.6,33.5,28.56,West,264,3.6,8.3,92,0.08,,-RA,0.24,VWS V14.00,2013-03-10 19:35:00,
2013-03-10 14:40:00,35.6,33.5,28.56,West,274,7.6,8.7,92,0.08,,-RA,0.24,VWS V14.00,2013-03-10 19:40:00,
2013-03-10 14:45:00,35.6,33.5,28.56,WNW,290,5.8,7.6,92,0.08,,-RA,0.24,VWS V14.00,2013-03-10 19:45:00,
2013-03-10 14:50:00,35.6,33.5,28.56,WNW,288,6.3,7.6,92,0.08,,-RA,0.24,VWS V14.00,2013-03-10 19:50:00,
2013-03-10 14:55:00,35.4,33.3,28.56,WNW,284,5.4,5.8,92,0.08,,-RA,0.24,VWS V14.00,2013-03-10 19:55:00,
2013-03-10 15:00:00,35.2,33.2,28.56,West,277,5.8,8.3,92,0.08,,,0.24,VWS V14.00,2013-03-10 20:00:00,
2013-03-10 15:05:00,34.9,32.8,28.56,WNW,292,3.6,8.7,92,0.04,,,0.24,VWS V14.00,2013-03-10 20:05:00,
2013-03-10 15:10:00,34.7,32.6,28.56,WSW,247,5.4,8.7,92,0.04,,,0.24,VWS V14.00,2013-03-10 20:10:00,
2013-03-10 15:15:00,34.3,32.3,28.56,WSW,246,3.6,7.6,92,0.04,,,0.24,VWS V14.00,2013-03-10 20:15:00,
2013-03-10 15:20:00,34.3,32.3,28.56,WNW,288,2.7,7.6,92,0.04,,,0.24,VWS V14.00,2013-03-10 20:20:00,
2013-03-10 15:25:00,34.2,32.1,28.56,WNW,282,3.1,5.8,92,0.04,,,0.24,VWS V14.00,2013-03-10 20:25:00,
2013-03-10 15:30:00,34.2,32.1,28.56,WSW,247,3.6,5.8,92,0.04,,,0.24,VWS V14.00,2013-03-10 20:30:00,
2013-03-10 15:35:00,34.0,31.9,28.56,WSW,249,3.6,6.3,92,0.04,,,0.24,VWS V14.00,2013-03-10 20:35:00,
2013-03-10 15:40:00,34.0,31.9,28.56,WNW,285,2.7,6.3,92,0.04,,,0.24,VWS V14.00,2013-03-10 20:40:00,
2013-03-10 15:45:00,34.0,31.9,28.56,SW,218,3.1,6.7,92,0.00,,,0.24,VWS V14.00,2013-03-10 20:45:00,
2013-03-10 15:50:00,34.0,31.9,28.56,SW,215,0.0,6.7,92,0.00,,,0.24,VWS V14.00,2013-03-10 20:50:00,
2013-03-10 15:55:00,34.2,32.1,28.56,WSW,244,3.1,6.3,92,0.00,,,0.24,VWS V14.00,2013-03-10 20:55:00,
2013-03-10 16:00:00,34.2,32.1,28.56,SW,233,3.1,8.3,92,0.00,,,0.24,VWS V14.00,2013-03-10 21:00:00,
2013-03-10 16:05:00,34.2,32.1,28.56,South,182,0.0,6.3,92,0.00,,,0.24,VWS V14.00,2013-03-10 21:05:00,
2013-03-10 16:10:00,34.3,32.3,28.56,SSW,195,3.1,6.3,92,0.00,,,0.24,VWS V14.00,2013-03-10 21:10:00,
2013-03-10 16:15:00,34.3,32.3,28.56,WSW,243,0.0,6.3,92,0.00,,,0.24,VWS V14.00,2013-03-10 21:15:00,
2013-03-10 16:20:00,34.2,32.1,28.56,West,277,0.0,6.3,92,0.00,,,0.24,VWS V14.00,2013-03-10 21:20:00,
2013-03-10 16:25:00,34.3,32.5,28.56,West,278,5.4,6.3,93,0.00,,,0.24,VWS V14.00,2013-03-10 21:25:00,
2013-03-10 16:30:00,34.3,32.5,28.56,SW,227,5.4,6.3,93,0.00,,,0.24,VWS V14.00,2013-03-10 21:30:00,
2013-03-10 16:35:00,34.3,32.5,28.56,WNW,298,2.7,8.7,93,0.00,,,0.24,VWS V14.00,2013-03-10 21:35:00,
2013-03-10 16:40:00,34.3,32.5,28.56,WNW,287,3.1,8.7,93,0.00,,,0.24,VWS V14.00,2013-03-10 21:40:00,
2013-03-10 16:45:00,34.3,32.5,28.56,West,277,8.1,8.7,93,0.00,,,0.24,VWS V14.00,2013-03-10 21:45:00,
2013-03-10 16:50:00,34.3,32.5,28.56,NW,306,2.7,8.7,93,0.00,,,0.24,VWS V14.00,2013-03-10 21:50:00,
2013-03-10 16:55:00,34.5,32.7,28.56,SSW,211,5.4,6.3,93,0.00,,,0.24,VWS V14.00,2013-03-10 21:55:00,
2013-03-10 17:00:00,34.3,32.5,28.56,SW,216,0.0,8.1,93,0.00,,,0.24,VWS V14.00,2013-03-10 22:00:00,
2013-03-10 17:05:00,34.5,32.7,28.56,West,268,6.3,6.3,93,0.00,,,0.24,VWS V14.00,2013-03-10 22:05:00,
2013-03-10 17:10:00,34.5,32.7,28.56,WSW,252,0.0,7.2,93,0.00,,,0.24,VWS V14.00,2013-03-10 22:10:00,
2013-03-10 17:15:00,34.3,32.5,28.56,West,265,0.0,10.1,93,0.00,,,0.24,VWS V14.00,2013-03-10 22:15:00,
2013-03-10 17:20:00,34.5,32.7,28.56,WNW,287,7.6,10.1,93,0.00,,,0.24,VWS V14.00,2013-03-10 22:20:00,
2013-03-10 17:25:00,34.3,32.5,28.56,WNW,283,0.0,7.6,93,0.00,,,0.24,VWS V14.00,2013-03-10 22:25:00,
2013-03-10 17:30:00,34.5,32.7,28.56,SW,236,3.1,7.6,93,0.00,,,0.24,VWS V14.00,2013-03-10 22:30:00,
2013-03-10 17:35:00,34.3,32.5,28.56,West,271,5.4,9.2,93,0.00,,,0.24,VWS V14.00,2013-03-10 22:35:00,
2013-03-10 17:40:00,34.3,32.5,28.56,WNW,290,2.2,9.2,93,0.00,,,0.24,VWS V14.00,2013-03-10 22:40:00,
2013-03-10 17:45:00,34.3,32.5,28.56,WNW,291,0.0,8.7,93,0.00,,,0.24,VWS V14.00,2013-03-10 22:45:00,
2013-03-10 17:50:00,34.3,32.5,28.56,West,263,2.7,8.7,93,0.00,,,0.24,VWS V14.00,2013-03-10 22:50:00,
2013-03-10 17:55:00,34.5,32.7,28.56,SSE,153,0.0,11.0,93,0.00,,,0.24,VWS V14.00,2013-03-10 22:55:00,
2013-03-10 18:00:00,34.5,32.7,28.56,WNW,295,5.4,11.0,93,0.00,,,0.24,VWS V14.00,2013-03-10 23:00:00,
2013-03-10 18:05:00,34.5,32.7,28.56,NW,314,5.8,8.1,93,0.00,,,0.24,VWS V14.00,2013-03-10 23:05:00,
2013-03-10 18:10:00,34.5,32.7,28.56,WSW,253,9.2,9.2,93,0.00,,,0.24,VWS V14.00,2013-03-10 23:10:00,
2013-03-10 18:15:00,34.5,32.7,28.56,WSW,256,0.0,9.2,93,0.00,,,0.24,VWS V14.00,2013-03-10 23:15:00,
2013-03-10 18:20:00,34.3,32.5,28.56,West,260,0.0,9.2,93,0.00,,,0.24,VWS V14.00,2013-03-10 23:20:00,
2013-03-10 18:25:00,34.5,32.7,28.56,West,280,0.0,5.4,93,0.00,,,0.24,VWS V14.00,2013-03-10 23:25:00,
2013-03-10 18:30:00,34.5,32.7,28.56,WNW,283,4.0,9.6,93,0.00,,,0.24,VWS V14.00,2013-03-10 23:30:00,
2013-03-10 18:35:00,34.3,32.5,28.56,West,259,5.4,8.7,93,0.00,,,0.24,VWS V14.00,2013-03-10 23:35:00,
2013-03-10 18:40:00,34.3,32.5,28.56,SSW,201,4.9,8.7,93,0.00,,,0.24,VWS V14.00,2013-03-10 23:40:00,
2013-03-10 18:45:00,34.3,32.5,28.56,WSW,247,3.1,8.3,93,0.00,,,0.24,VWS V14.00,2013-03-10 23:45:00,
2013-03-10 18:50:00,34.3,32.5,28.56,West,270,3.6,8.3,93,0.00,,,0.24,VWS V14.00,2013-03-10 23:50:00,
2013-03-10 18:55:00,34.3,32.5,28.56,SW,221,5.4,7.6,93,0.00,,,0.24,VWS V14.00,2013-03-10 23:55:00,
2013-03-10 19:00:00,34.3,32.5,28.59,WNW,299,5.8,11.0,93,0.00,,,0.24,VWS V14.00,2013-03-11 00:00:00,
2013-03-10 19:05:00,34.3,32.5,28.59,WSW,254,5.4,8.7,93,0.00,,,0.24,VWS V14.00,2013-03-11 00:05:00,
2013-03-10 19:10:00,34.3,32.5,28.59,SSW,213,6.3,8.7,93,0.00,,,0.24,VWS V14.00,2013-03-11 00:10:00,
2013-03-10 19:15:00,34.5,32.7,28.59,West,273,3.1,9.2,93,0.00,,,0.24,VWS V14.00,2013-03-11 00:15:00,
2013-03-10 19:20:00,34.3,32.5,28.59,WNW,291,5.8,9.2,93,0.00,,,0.24,VWS V14.00,2013-03-11 00:20:00,
2013-03-10 19:25:00,34.3,32.5,28.59,West,275,0.0,10.5,93,0.00,,,0.24,VWS V14.00,2013-03-11 00:25:00,
2013-03-10 19:30:00,34.3,32.5,28.59,SW,236,3.1,10.5,93,0.00,,,0.24,VWS V14.00,2013-03-11 00:30:00,
2013-03-10 19:35:00,34.3,32.5,28.59,West,279,8.7,8.7,93,0.00,,,0.24,VWS V14.00,2013-03-11 00:35:00,
2013-03-10 19:40:00,34.3,32.5,28.59,SW,220,0.0,8.7,93,0.00,,,0.24,VWS V14.00,2013-03-11 00:40:00,
2013-03-10 19:45:00,34.3,32.5,28.59,SW,231,0.0,8.3,93,0.00,,,0.24,VWS V14.00,2013-03-11 00:45:00,
2013-03-10 19:50:00,34.3,32.5,28.59,WSW,258,3.6,13.2,93,0.00,,,0.24,VWS V14.00,2013-03-11 00:50:00,
2013-03-10 19:55:00,34.3,32.5,28.59,West,273,0.0,5.4,93,0.00,,,0.24,VWS V14.00,2013-03-11 00:55:00,
2013-03-10 20:00:00,34.3,32.5,28.59,WSW,239,0.0,5.4,93,0.00,,,0.24,VWS V14.00,2013-03-11 01:00:00,
2013-03-10 20:05:00,34.3,32.5,28.59,WNW,302,0.0,0.0,93,0.00,,,0.24,VWS V14.00,2013-03-11 01:05:00,
2013-03-10 20:10:00,34.3,32.5,28.59,SW,222,0.0,0.0,93,0.00,,,0.24,VWS V14.00,2013-03-11 01:10:00,
2013-03-10 20:15:00,34.3,32.5,28.59,West,267,0.0,0.0,93,0.00,,,0.24,VWS V14.00,2013-03-11 01:15:00,
2013-03-10 20:20:00,34.3,32.5,28.59,WSW,250,0.0,0.0,93,0.00,,,0.24,VWS V14.00,2013-03-11 01:20:00,
2013-03-10 20:25:00,34.3,32.5,28.59,SSW,205,0.0,0.0,93,0.00,,,0.24,VWS V14.00,2013-03-11 01:25:00,
2013-03-10 20:30:00,34.3,32.5,28.59,WSW,239,0.0,0.0,93,0.00,,,0.24,VWS V14.00,2013-03-11 01:30:00,
2013-03-10 20:35:00,34.3,32.5,28.59,WSW,253,0.0,0.0,93,0.00,,,0.24,VWS V14.00,2013-03-11 01:35:00,
2013-03-10 20:40:00,34.3,32.5,28.59,NW,308,0.0,0.0,93,0.00,,,0.24,VWS V14.00,2013-03-11 01:40:00,
2013-03-10 20:45:00,34.3,32.5,28.59,West,281,0.0,0.0,93,0.00,,,0.24,VWS V14.00,2013-03-11 01:45:00,
2013-03-10 20:50:00,34.3,32.5,28.59,West,264,0.0,0.0,93,0.00,,,0.24,VWS V14.00,2013-03-11 01:50:00,
2013-03-10 20:55:00,34.3,32.5,28.59,West,273,0.0,0.0,93,0.00,,,0.24,VWS V14.00,2013-03-11 01:55:00,
2013-03-10 21:00:00,34.3,32.5,28.59,WSW,258,0.0,0.0,93,0.00,,,0.24,VWS V14.00,2013-03-11 02:00:00,
2013-03-10 21:05:00,34.3,32.5,28.59,West,281,0.0,0.0,93,0.00,,,0.24,VWS V14.00,2013-03-11 02:05:00,
2013-03-10 21:10:00,34.3,32.5,28.59,WNW,291,0.0,0.0,93,0.00,,,0.24,VWS V14.00,2013-03-11 02:10:00,
2013-03-10 21:15:00,34.3,32.5,28.59,WNW,290,0.0,0.0,93,0.00,,,0.24,VWS V14.00,2013-03-11 02:15:00,
2013-03-10 21:20:00,34.3,32.5,28.59,West,281,0.0,0.0,93,0.00,,,0.24,VWS V14.00,2013-03-11 02:20:00,
2013-03-10 21:25:00,34.3,32.5,28.59,West,281,0.0,0.0,93,0.00,,,0.24,VWS V14.00,2013-03-11 02:25:00,
2013-03-10 21:30:00,34.2,32.3,28.59,WSW,243,0.0,0.0,93,0.00,,,0.24,VWS V14.00,2013-03-11 02:30:00,
2013-03-10 21:35:00,34.2,32.3,28.59,West,266,0.0,0.0,93,0.00,,,0.24,VWS V14.00,2013-03-11 02:35:00,
2013-03-10 21:40:00,34.2,32.3,28.59,WNW,301,0.0,0.0,93,0.00,,,0.24,VWS V14.00,2013-03-11 02:40:00,
2013-03-10 21:45:00,34.2,32.3,28.59,WNW,293,0.0,0.0,93,0.00,,,0.24,VWS V14.00,2013-03-11 02:45:00,
2013-03-10 21:50:00,34.0,32.2,28.59,WNW,299,0.0,0.0,93,0.00,,,0.24,VWS V14.00,2013-03-11 02:50:00,
2013-03-10 21:55:00,34.0,32.2,28.59,West,274,0.0,0.0,93,0.00,,,0.24,VWS V14.00,2013-03-11 02:55:00,
2013-03-10 22:00:00,34.0,32.2,28.59,WSW,248,0.0,0.0,93,0.00,,,0.24,VWS V14.00,2013-03-11 03:00:00,
2013-03-10 22:05:00,34.0,32.2,28.59,WNW,286,0.0,0.0,93,0.00,,,0.24,VWS V14.00,2013-03-11 03:05:00,
2013-03-10 22:10:00,33.8,32.0,28.59,West,270,0.0,0.0,93,0.00,,,0.24,VWS V14.00,2013-03-11 03:10:00,
2013-03-10 22:15:00,33.8,32.0,28.61,WSW,251,0.0,0.0,93,0.00,,,0.24,VWS V14.00,2013-03-11 03:15:00,
2013-03-10 22:20:00,33.8,32.0,28.61,West,260,0.0,0.0,93,0.00,,,0.24,VWS V14.00,2013-03-11 03:20:00,
2013-03-10 22:25:00,33.6,31.8,28.61,West,269,0.0,0.0,93,0.00,,,0.24,VWS V14.00,2013-03-11 03:25:00,
2013-03-10 22:30:00,33.6,31.8,28.61,West,262,0.0,0.0,93,0.00,,,0.24,VWS V14.00,2013-03-11 03:30:00,
2013-03-10 22:35:00,33.6,31.8,28.61,West,259,0.0,0.0,93,0.00,,,0.24,VWS V14.00,2013-03-11 03:35:00,
2013-03-10 22:40:00,33.6,31.8,28.61,West,259,0.0,0.0,93,0.00,,,0.24,VWS V14.00,2013-03-11 03:40:00,
2013-03-10 22:45:00,33.4,31.6,28.61,West,261,0.0,0.0,93,0.00,,,0.24,VWS V14.00,2013-03-11 03:45:00,
2013-03-10 22:50:00,33.3,31.5,28.61,West,259,0.0,0.0,93,0.00,,,0.24,VWS V14.00,2013-03-11 03:50:00,
2013-03-10 22:55:00,33.1,31.3,28.61,WSW,252,0.0,0.0,93,0.00,,,0.24,VWS V14.00,2013-03-11 03:55:00,
2013-03-10 23:00:00,32.9,31.1,28.61,West,261,0.0,0.0,93,0.00,,,0.24,VWS V14.00,2013-03-11 04:00:00,
2013-03-10 23:05:00,32.7,30.9,28.61,West,266,0.0,0.0,93,0.00,,,0.24,VWS V14.00,2013-03-11 04:05:00,
2013-03-10 23:10:00,32.7,30.7,28.61,SW,235,0.0,0.0,92,0.00,,,0.24,VWS V14.00,2013-03-11 04:10:00,
2013-03-10 23:15:00,32.5,30.5,28.61,SW,232,0.0,0.0,92,0.00,,,0.24,VWS V14.00,2013-03-11 04:15:00,
2013-03-10 23:20:00,32.4,30.0,28.61,WSW,253,0.0,0.0,91,0.00,,,0.24,VWS V14.00,2013-03-11 04:20:00,
2013-03-10 23:25:00,32.2,29.6,28.61,SW,236,0.0,0.0,90,0.00,,,0.24,VWS V14.00,2013-03-11 04:25:00,
2013-03-10 23:30:00,32.0,29.4,28.61,WSW,248,0.0,0.0,90,0.00,,,0.24,VWS V14.00,2013-03-11 04:30:00,
2013-03-10 23:35:00,32.0,29.1,28.61,SW,233,0.0,0.0,89,0.00,,,0.24,VWS V14.00,2013-03-11 04:35:00,
2013-03-10 23:40:00,31.8,29.0,28.61,WSW,239,0.0,0.0,89,0.00,,,0.24,VWS V14.00,2013-03-11 04:40:00,
2013-03-10 23:45:00,31.8,28.7,28.61,WSW,239,0.0,0.0,88,0.00,,,0.24,VWS V14.00,2013-03-11 04:45:00,
2013-03-10 23:50:00,31.5,28.0,28.61,WSW,254,0.0,0.0,87,0.00,,,0.24,VWS V14.00,2013-03-11 04:50:00,
2013-03-10 23:55:00,31.5,27.8,28.61,WSW,245,0.0,0.0,86,0.00,,,0.24,VWS V14.00,2013-03-11 04:55:00,